Time,TemperatureF,DewpointF,PressureIn,WindDirection,WindDirectionDegrees,WindSpeedMPH,WindSpeedGustMPH,Humidity,HourlyPrecipIn,Conditions,Clouds,dailyrainin,SoftwareType,DateUTC
2013-04-12 00:03:00,33.0,31.0,-100.00,WNW,295,16.0,21.0,92,0.00,,,-99.99,,2013-04-12 05:03:00,
2013-04-12 00:12:00,33.0,31.0,-100.00,WNW,295,17.0,22.0,92,0.00,,,-99.99,,2013-04-12 05:12:00,
2013-04-12 00:22:00,33.0,31.0,-100.00,WNW,295,17.0,23.0,92,0.00,,,-99.99,,2013-04-12 05:22:00,
2013-04-12 00:32:00,33.0,31.0,-100.00,WNW,300,16.0,22.0,92,0.00,,,-99.99,,2013-04-12 05:32:00,
2013-04-12 00:42:00,33.0,31.0,-100.00,WNW,300,16.0,22.0,92,0.00,,,-99.99,,2013-04-12 05:42:00,
2013-04-12 00:52:00,33.0,31.0,-100.00,WNW,295,17.0,21.0,92,0.00,,,-99.99,,2013-04-12 05:52:00,
2013-04-12 01:02:00,33.0,31.0,-100.00,WNW,295,17.0,21.0,92,0.00,,,-99.99,,2013-04-12 06:02:00,
2013-04-12 01:12:00,33.0,31.0,-100.00,WNW,295,16.0,21.0,92,0.00,,,-99.99,,2013-04-12 06:12:00,
2013-04-12 01:22:00,33.0,31.0,-100.00,WNW,295,16.0,21.0,92,0.00,,,-99.99,,2013-04-12 06:22:00,
2013-04-12 01:32:00,33.0,31.0,-100.00,NW,305,13.0,26.0,92,0.00,,,-99.99,,2013-04-12 06:32:00,
2013-04-12 01:42:00,33.0,31.0,-100.00,NW,305,13.0,26.0,92,0.00,,,-99.99,,2013-04-12 06:42:00,
2013-04-12 01:52:00,33.0,31.0,-100.00,WNW,300,18.0,26.0,92,0.00,,,-99.99,,2013-04-12 06:52:00,
2013-04-12 02:01:00,33.0,31.0,-100.00,WNW,300,18.0,26.0,92,0.00,,,-99.99,,2013-04-12 07:01:00,
2013-04-12 02:11:00,33.0,31.0,-100.00,WNW,300,17.0,24.0,93,0.00,,,-99.99,,2013-04-12 07:11:00,
2013-04-12 02:22:00,33.0,31.0,-100.00,WNW,300,19.0,23.0,93,0.00,,,-99.99,,2013-04-12 07:22:00,
2013-04-12 02:32:00,33.0,31.0,-100.00,WNW,300,17.0,21.0,93,0.00,,,-99.99,,2013-04-12 07:32:00,
2013-04-12 02:42:00,33.0,31.0,-100.00,WNW,300,17.0,21.0,93,0.00,,,-99.99,,2013-04-12 07:42:00,
2013-04-12 02:52:00,33.0,31.0,-100.00,WNW,295,17.0,22.0,93,0.00,,,-99.99,,2013-04-12 07:52:00,
2013-04-12 03:03:00,33.0,31.0,-100.00,WNW,295,17.0,22.0,93,0.00,,,-99.99,,2013-04-12 08:03:00,
2013-04-12 03:12:00,33.0,31.0,-100.00,WNW,300,18.0,23.0,93,0.00,,,-99.99,,2013-04-12 08:12:00,
2013-04-12 03:22:00,33.0,31.0,-100.00,WNW,295,17.0,22.0,93,0.00,,,-99.99,,2013-04-12 08:22:00,
2013-04-12 03:32:00,33.0,31.0,-100.00,WNW,295,16.0,21.0,93,0.00,,,-99.99,,2013-04-12 08:32:00,
2013-04-12 03:42:00,33.0,31.0,-100.00,WNW,295,16.0,21.0,93,0.00,,,-99.99,,2013-04-12 08:42:00,
2013-04-12 03:52:00,33.0,31.0,-100.00,WNW,295,18.0,22.0,93,0.00,,,-99.99,,2013-04-12 08:52:00,
2013-04-12 04:02:00,33.0,31.0,-100.00,WNW,295,18.0,22.0,93,0.00,,,-99.99,,2013-04-12 09:02:00,
2013-04-12 04:12:00,33.0,31.0,-100.00,NW,305,15.0,20.0,93,0.00,,,-99.99,,2013-04-12 09:12:00,
2013-04-12 04:22:00,33.0,31.0,-100.00,NW,310,14.0,24.0,93,0.00,,,-99.99,,2013-04-12 09:22:00,
2013-04-12 04:33:00,33.0,31.0,-100.00,NW,310,17.0,22.0,93,0.00,,,-99.99,,2013-04-12 09:33:00,
2013-04-12 04:43:00,33.0,31.0,-100.00,NW,310,17.0,22.0,93,0.00,,,-99.99,,2013-04-12 09:43:00,
2013-04-12 04:52:00,33.0,31.0,-100.00,NW,305,12.0,18.0,93,0.00,,,-99.99,,2013-04-12 09:52:00,
2013-04-12 05:03:00,33.0,31.0,-100.00,NW,305,12.0,18.0,93,0.00,,,-99.99,,2013-04-12 10:03:00,
2013-04-12 05:12:00,33.0,31.0,-100.00,NW,310,14.0,18.0,93,0.00,,,-99.99,,2013-04-12 10:12:00,
2013-04-12 05:23:00,33.0,31.0,-100.00,NW,315,14.0,18.0,93,0.00,,,-99.99,,2013-04-12 10:23:00,
2013-04-12 05:34:00,33.0,31.0,-100.00,NW,315,11.0,17.0,93,0.00,,,-99.99,,2013-04-12 10:34:00,
2013-04-12 05:42:00,33.0,31.0,-100.00,NW,315,11.0,17.0,93,0.00,,,-99.99,,2013-04-12 10:42:00,
2013-04-12 05:52:00,33.0,31.0,-100.00,NW,305,11.0,18.0,92,0.00,,,-99.99,,2013-04-12 10:52:00,
2013-04-12 06:02:00,33.0,31.0,-100.00,NW,305,11.0,18.0,92,0.00,,,-99.99,,2013-04-12 11:02:00,
2013-04-12 06:12:00,33.0,31.0,-100.00,NW,325,11.0,17.0,92,0.00,,,-99.99,,2013-04-12 11:12:00,
2013-04-12 06:22:00,33.0,31.0,-100.00,NNW,330,9.0,16.0,91,0.00,,,-99.99,,2013-04-12 11:22:00,
2013-04-12 06:32:00,33.0,31.0,-100.00,NW,325,9.0,17.0,91,0.00,,,-99.99,,2013-04-12 11:32:00,
2013-04-12 06:42:00,33.0,31.0,-100.00,NW,325,9.0,17.0,91,0.00,,,-99.99,,2013-04-12 11:42:00,
2013-04-12 06:52:00,33.0,31.0,-100.00,NNW,330,11.0,17.0,90,0.00,,,-99.99,,2013-04-12 11:52:00,
2013-04-12 07:02:00,33.0,31.0,-100.00,NNW,330,11.0,17.0,90,0.00,,,-99.99,,2013-04-12 12:02:00,
2013-04-12 07:12:00,33.0,31.0,-100.00,NNW,330,11.0,18.0,90,0.00,,,-99.99,,2013-04-12 12:12:00,
2013-04-12 07:22:00,33.0,31.0,-100.00,NNW,335,9.0,18.0,90,0.00,,,-99.99,,2013-04-12 12:22:00,
2013-04-12 07:32:00,33.0,30.0,-100.00,NNW,335,12.0,18.0,89,0.00,,,-99.99,,2013-04-12 12:32:00,
2013-04-12 07:42:00,33.0,30.0,-100.00,NNW,335,12.0,18.0,89,0.00,,,-99.99,,2013-04-12 12:42:00,
2013-04-12 07:52:00,33.0,30.0,-100.00,NNW,330,10.0,14.0,88,0.00,,,-99.99,,2013-04-12 12:52:00,
2013-04-12 08:03:00,33.0,30.0,-100.00,NNW,330,10.0,14.0,88,0.00,,,-99.99,,2013-04-12 13:03:00,
2013-04-12 08:12:00,33.0,30.0,-100.00,NW,325,10.0,16.0,88,0.00,,,-99.99,,2013-04-12 13:12:00,
2013-04-12 08:22:00,33.0,30.0,-100.00,NW,320,15.0,20.0,87,0.00,,,-99.99,,2013-04-12 13:22:00,
2013-04-12 08:32:00,33.0,29.0,-100.00,NW,325,14.0,21.0,85,0.00,,,-99.99,,2013-04-12 13:32:00,
2013-04-12 08:42:00,33.0,29.0,-100.00,NW,325,14.0,21.0,85,0.00,,,-99.99,,2013-04-12 13:42:00,
2013-04-12 08:52:00,33.0,29.0,-100.00,NW,310,14.0,22.0,85,0.00,,,-99.99,,2013-04-12 13:52:00,
2013-04-12 09:03:00,33.0,29.0,-100.00,NW,310,14.0,22.0,85,0.00,,,-99.99,,2013-04-12 14:03:00,
2013-04-12 09:12:00,33.0,29.0,-100.00,NW,320,15.0,20.0,84,0.00,,,-99.99,,2013-04-12 14:12:00,
2013-04-12 09:22:00,33.0,29.0,-100.00,NNW,335,16.0,21.0,84,0.00,,,-99.99,,2013-04-12 14:22:00,
2013-04-12 09:32:00,33.0,30.0,-100.00,NW,305,14.0,24.0,86,0.00,,,-99.99,,2013-04-12 14:32:00,
2013-04-12 09:42:00,33.0,30.0,-100.00,NW,305,14.0,24.0,86,0.00,,,-99.99,,2013-04-12 14:42:00,
2013-04-12 09:52:00,33.0,29.0,-100.00,NW,325,15.0,24.0,87,0.00,,,-99.99,,2013-04-12 14:52:00,
2013-04-12 10:02:00,33.0,29.0,-100.00,NW,325,15.0,24.0,87,0.00,,,-99.99,,2013-04-12 15:02:00,
2013-04-12 10:12:00,33.0,30.0,-100.00,NW,320,10.0,21.0,86,0.00,,,-99.99,,2013-04-12 15:12:00,
2013-04-12 10:22:00,33.0,29.0,-100.00,NW,325,17.0,24.0,87,0.00,,,-99.99,,2013-04-12 15:22:00,
2013-04-12 10:33:00,33.0,29.0,-100.00,NW,305,16.0,25.0,87,0.00,,,-99.99,,2013-04-12 15:33:00,
2013-04-12 10:43:00,33.0,29.0,-100.00,NW,305,16.0,25.0,87,0.00,,,-99.99,,2013-04-12 15:43:00,
2013-04-12 10:53:00,33.0,29.0,-100.00,NW,320,16.0,24.0,86,0.00,,,-99.99,,2013-04-12 15:53:00,
2013-04-12 11:03:00,33.0,29.0,-100.00,NW,320,16.0,24.0,86,0.00,,,-99.99,,2013-04-12 16:03:00,
2013-04-12 11:13:00,34.0,30.0,-100.00,NW,325,14.0,28.0,85,0.00,,,-99.99,,2013-04-12 16:13:00,
2013-04-12 11:23:00,34.0,30.0,-100.00,NW,310,19.0,24.0,84,0.00,,,-99.99,,2013-04-12 16:23:00,
2013-04-12 11:33:00,35.0,30.0,-100.00,NW,305,17.0,27.0,84,0.00,,,-99.99,,2013-04-12 16:33:00,
2013-04-12 11:42:00,35.0,30.0,-100.00,NW,305,17.0,27.0,84,0.00,,,-99.99,,2013-04-12 16:42:00,
2013-04-12 11:52:00,35.0,30.0,-100.00,NW,325,16.0,22.0,80,0.00,,,-99.99,,2013-04-12 16:52:00,
2013-04-12 12:03:00,35.0,30.0,-100.00,NW,325,16.0,22.0,80,0.00,,,-99.99,,2013-04-12 17:03:00,
2013-04-12 12:12:00,35.0,29.0,-100.00,NW,315,16.0,24.0,77,0.00,,,-99.99,,2013-04-12 17:12:00,
2013-04-12 12:22:00,36.0,30.0,-100.00,NW,310,15.0,24.0,77,0.00,,,-99.99,,2013-04-12 17:22:00,
2013-04-12 12:33:00,37.0,29.0,-100.00,NNW,330,14.0,29.0,74,0.00,,,-99.99,,2013-04-12 17:33:00,
2013-04-12 12:44:00,37.0,29.0,-100.00,NNW,330,14.0,29.0,74,0.00,,,-99.99,,2013-04-12 17:44:00,
2013-04-12 12:56:00,36.0,29.0,-100.00,NW,315,17.0,26.0,74,0.00,,,-99.99,,2013-04-12 17:56:00,
2013-04-12 13:09:00,36.0,29.0,-100.00,NW,315,17.0,26.0,74,0.00,,,-99.99,,2013-04-12 18:09:00,
2013-04-12 13:15:00,37.0,30.0,-100.00,NW,320,18.0,26.0,74,0.00,,,-99.99,,2013-04-12 18:15:00,
2013-04-12 14:26:00,36.0,28.0,-100.00,WNW,300,17.0,22.0,73,0.21,,,-99.99,,2013-04-12 19:26:00,
2013-04-12 14:32:00,36.0,29.0,-100.00,WNW,295,17.0,23.0,76,0.00,,,-99.99,,2013-04-12 19:32:00,
2013-04-12 14:42:00,36.0,29.0,-100.00,WNW,295,17.0,23.0,76,0.00,,,-99.99,,2013-04-12 19:42:00,
2013-04-12 14:52:00,36.0,29.0,-100.00,WNW,295,18.0,23.0,75,0.00,,,-99.99,,2013-04-12 19:52:00,
2013-04-12 15:02:00,36.0,29.0,-100.00,WNW,295,18.0,23.0,75,0.00,,,-99.99,,2013-04-12 20:02:00,
2013-04-12 15:12:00,36.0,28.0,-100.00,WNW,300,19.0,24.0,73,0.00,,,-99.99,,2013-04-12 20:12:00,
2013-04-12 15:22:00,36.0,28.0,-100.00,WNW,295,17.0,23.0,73,0.00,,,-99.99,,2013-04-12 20:22:00,
2013-04-12 15:32:00,35.0,27.0,-100.00,NW,305,18.0,23.0,71,0.00,,,-99.99,,2013-04-12 20:32:00,
2013-04-12 15:42:00,35.0,27.0,-100.00,NW,305,18.0,23.0,71,0.00,,,-99.99,,2013-04-12 20:42:00,
2013-04-12 15:52:00,35.0,28.0,-100.00,WNW,295,17.0,22.0,74,0.00,,,-99.99,,2013-04-12 20:52:00,
2013-04-12 16:02:00,35.0,28.0,-100.00,WNW,295,17.0,22.0,74,0.00,,,-99.99,,2013-04-12 21:02:00,
2013-04-12 16:12:00,35.0,29.0,-100.00,WNW,295,15.0,23.0,75,0.00,,,-99.99,,2013-04-12 21:12:00,
2013-04-12 16:22:00,36.0,29.0,-100.00,WNW,300,16.0,19.0,75,0.00,,,-99.99,,2013-04-12 21:22:00,
2013-04-12 16:33:00,36.0,29.0,-100.00,WNW,300,14.0,20.0,74,0.00,,,-99.99,,2013-04-12 21:33:00,
2013-04-12 16:43:00,36.0,29.0,-100.00,WNW,300,14.0,20.0,74,0.00,,,-99.99,,2013-04-12 21:43:00,
2013-04-12 16:52:00,36.0,28.0,-100.00,NW,305,14.0,20.0,73,0.00,,,-99.99,,2013-04-12 21:52:00,
2013-04-12 17:02:00,36.0,28.0,-100.00,NW,305,14.0,20.0,73,0.00,,,-99.99,,2013-04-12 22:02:00,
2013-04-12 17:12:00,36.0,28.0,-100.00,WNW,295,17.0,22.0,72,0.00,,,-99.99,,2013-04-12 22:12:00,
2013-04-12 17:22:00,36.0,28.0,-100.00,NW,305,14.0,18.0,71,0.00,,,-99.99,,2013-04-12 22:22:00,
2013-04-12 17:32:00,36.0,27.0,-100.00,WNW,295,18.0,22.0,69,0.00,,,-99.99,,2013-04-12 22:32:00,
2013-04-12 17:42:00,36.0,27.0,-100.00,WNW,295,18.0,22.0,69,0.00,,,-99.99,,2013-04-12 22:42:00,
2013-04-12 17:52:00,36.0,27.0,-100.00,WNW,300,16.0,21.0,68,0.00,,,-99.99,,2013-04-12 22:52:00,
2013-04-12 18:03:00,36.0,27.0,-100.00,WNW,300,16.0,21.0,68,0.00,,,-99.99,,2013-04-12 23:03:00,
2013-04-12 18:12:00,36.0,27.0,-100.00,WNW,300,18.0,24.0,68,0.00,,,-99.99,,2013-04-12 23:12:00,
2013-04-12 18:22:00,36.0,27.0,-100.00,WNW,295,21.0,26.0,68,0.00,,,-99.99,,2013-04-12 23:22:00,
2013-04-12 18:32:00,35.0,26.0,-100.00,NW,305,19.0,26.0,68,0.00,,,-99.99,,2013-04-12 23:32:00,
2013-04-12 18:42:00,35.0,26.0,-100.00,NW,305,19.0,26.0,68,0.00,,,-99.99,,2013-04-12 23:42:00,
2013-04-12 18:52:00,35.0,26.0,-100.00,WNW,300,16.0,22.0,69,0.00,,,-99.99,,2013-04-12 23:52:00,
2013-04-12 19:02:00,35.0,26.0,-100.00,WNW,300,16.0,22.0,69,0.00,,,-99.99,,2013-04-13 00:02:00,
2013-04-12 19:12:00,35.0,26.0,-100.00,NW,305,19.0,24.0,69,0.00,,,-99.99,,2013-04-13 00:12:00,
2013-04-12 19:22:00,35.0,26.0,-100.00,WNW,295,19.0,24.0,70,0.00,,,-99.99,,2013-04-13 00:22:00,
2013-04-12 19:32:00,34.0,25.0,-100.00,WNW,300,21.0,27.0,68,0.00,,,-99.99,,2013-04-13 00:32:00,
2013-04-12 19:42:00,34.0,25.0,-100.00,WNW,300,21.0,27.0,68,0.00,,,-99.99,,2013-04-13 00:42:00,
2013-04-12 19:52:00,33.0,24.0,-100.00,NW,315,21.0,27.0,68,0.00,,,-99.99,,2013-04-13 00:52:00,
2013-04-12 20:02:00,33.0,24.0,-100.00,NW,315,21.0,27.0,68,0.00,,,-99.99,,2013-04-13 01:02:00,
2013-04-12 20:12:00,33.0,24.0,-100.00,NW,315,17.0,24.0,68,0.00,,,-99.99,,2013-04-13 01:12:00,
2013-04-12 20:22:00,33.0,24.0,-100.00,NW,310,15.0,21.0,69,0.00,,,-99.99,,2013-04-13 01:22:00,
2013-04-12 20:42:00,33.0,25.0,-100.00,NW,305,14.0,20.0,71,0.00,,,-99.99,,2013-04-13 01:42:00,
2013-04-12 20:52:00,33.0,26.0,-100.00,NW,305,11.0,20.0,73,0.00,,,-99.99,,2013-04-13 01:52:00,
2013-04-12 21:02:00,33.0,26.0,-100.00,NW,305,11.0,20.0,73,0.00,,,-99.99,,2013-04-13 02:02:00,
2013-04-12 21:12:00,33.0,26.0,-100.00,NW,310,12.0,16.0,73,0.00,,,-99.99,,2013-04-13 02:12:00,
2013-04-12 21:22:00,33.0,25.0,-100.00,NW,305,17.0,22.0,73,0.00,,,-99.99,,2013-04-13 02:22:00,
2013-04-12 21:32:00,33.0,24.0,-100.00,NW,305,19.0,24.0,69,0.00,,,-99.99,,2013-04-13 02:32:00,
2013-04-12 21:42:00,33.0,24.0,-100.00,NW,305,19.0,24.0,69,0.00,,,-99.99,,2013-04-13 02:42:00,
2013-04-12 21:52:00,33.0,24.0,-100.00,NW,310,16.0,21.0,71,0.00,,,-99.99,,2013-04-13 02:52:00,
2013-04-12 22:02:00,33.0,24.0,-100.00,NW,310,16.0,21.0,71,0.00,,,-99.99,,2013-04-13 03:02:00,
2013-04-12 22:12:00,33.0,24.0,-100.00,NW,310,16.0,24.0,71,0.00,,,-99.99,,2013-04-13 03:12:00,
2013-04-12 22:22:00,32.0,24.0,-100.00,NW,305,17.0,22.0,71,0.00,,,-99.99,,2013-04-13 03:22:00,
2013-04-12 22:33:00,32.0,24.0,-100.00,NW,310,14.0,19.0,72,0.00,,,-99.99,,2013-04-13 03:33:00,
2013-04-12 22:42:00,32.0,24.0,-100.00,NW,310,14.0,19.0,72,0.00,,,-99.99,,2013-04-13 03:42:00,
2013-04-12 22:52:00,32.0,25.0,-100.00,NW,310,13.0,17.0,73,0.00,,,-99.99,,2013-04-13 03:52:00,
2013-04-12 23:03:00,32.0,25.0,-100.00,NW,310,13.0,17.0,73,0.00,,,-99.99,,2013-04-13 04:03:00,
2013-04-12 23:12:00,32.0,25.0,-100.00,NW,305,15.0,18.0,74,0.00,,,-99.99,,2013-04-13 04:12:00,
2013-04-12 23:23:00,32.0,25.0,-100.00,WNW,295,11.0,18.0,74,0.00,,,-99.99,,2013-04-13 04:23:00,
2013-04-12 23:33:00,32.0,25.0,-100.00,NW,305,13.0,19.0,74,0.00,,,-99.99,,2013-04-13 04:33:00,
2013-04-12 23:42:00,32.0,25.0,-100.00,NW,305,13.0,19.0,74,0.00,,,-99.99,,2013-04-13 04:42:00,
2013-04-12 23:53:00,32.0,24.0,-100.00,NW,305,11.0,16.0,74,0.00,,,-99.99,,2013-04-13 04:53:00,